Theta_e
287 280 272 278 280 281 280 277 276 280 286 282 281 281 283 286 284 283 282 282 284 285 288 288 288 288 288 288 289 289 289 290 291 292 291 292 293 298 300 302 306 308 311 314
281 276 283 285 285 281 279 273 273 280 284 282 279 279 283 285 283 283 283 281 283 284 285 286 286 286 286 286 287 288 289 290 293 292 293 294 295 297 300 302 304 309 311 314
275 283 286 284 281 278 277 273 274 276 279 280 278 275 280 283 284 285 284 283 283 283 283 284 285 284 284 284 285 287 289 290 291 292 294 296 297 297 298 300 301 307 311 312
279 285 283 281 279 279 270 282 280 278 270 265 278 265 276 280 282 283 282 281 281 281 282 283 283 283 283 284 285 286 289 290 291 292 293 294 294 295 297 299 302 308 311 311
276 280 280 277 281 282 277 282 280 279 266 270 270 265 274 279 279 278 280 281 281 281 281 282 282 283 283 284 284 287 289 289 291 291 293 294 295 298 299 300 300 304 307 311
278 284 281 281 283 283 284 277 277 274 266 261 266 266 271 274 277 277 280 280 281 281 281 281 282 283 282 283 283 285 286 288 289 290 292 294 295 299 298 298 300 304 306 309
277 279 281 283 279 283 277 267 260 261 261 264 264 268 272 277 278 278 278 279 280 281 280 280 280 280 281 281 282 284 286 285 287 289 291 293 296 299 297 298 301 303 305 308
265 267 273 283 279 273 275 269 262 256 260 263 263 264 272 279 280 280 280 280 281 280 280 280 280 280 280 281 282 283 284 284 286 289 290 292 296 298 300 301 301 303 302 304
266 270 280 281 282 279 272 266 275 261 259 263 264 269 277 279 273 277 278 279 278 279 279 279 280 280 280 280 281 282 283 284 286 287 289 290 293 295 297 297 297 299 304 306
274 265 273 278 282 279 274 277 265 263 257 256 262 261 270 269 269 272 275 274 275 276 277 279 279 279 280 280 280 282 284 283 285 287 288 290 291 293 294 297 297 298 300 302
274 267 270 277 268 269 268 267 267 266 268 260 258 264 270 270 268 269 272 274 274 273 275 277 279 280 280 280 279 280 281 282 284 285 286 288 289 291 292 294 296 297 298 298
279 274 266 270 279 281 276 270 273 264 260 266 267 269 268 269 270 269 273 273 274 271 274 278 279 279 279 278 278 278 280 281 283 284 285 287 288 289 290 291 293 295 295 295
279 267 261 268 273 276 271 275 276 269 272 267 261 266 269 265 266 269 271 273 271 272 273 277 278 277 278 277 277 277 279 280 282 283 284 285 286 287 288 289 291 292 293 292
283 276 268 266 266 265 268 273 276 271 261 264 267 270 276 276 268 269 269 269 266 267 271 274 275 276 276 276 276 277 277 279 281 282 283 283 284 286 287 288 289 290 291 290
277 268 272 273 272 270 273 272 271 270 272 265 272 265 273 277 273 276 270 263 269 267 269 271 272 274 274 274 275 276 277 278 279 281 281 282 283 285 286 286 287 287 287 287
279 265 267 264 273 274 270 273 272 271 272 270 273 272 279 279 264 266 268 262 268 263 265 268 268 272 272 273 274 275 277 277 279 279 280 281 282 283 284 285 285 285 285 285
274 267 263 261 269 267 266 267 267 267 265 267 264 270 262 266 265 265 266 264 267 263 263 267 265 269 271 272 274 275 276 277 278 278 279 281 281 282 283 283 283 283 284 284
268 268 262 260 261 258 274 276 273 271 272 270 268 270 269 269 266 267 263 267 268 262 264 266 266 265 269 268 273 276 276 276 277 278 279 281 281 281 282 282 282 282 283 283
276 269 262 260 253 266 274 274 274 273 273 276 275 276 271 270 275 272 272 272 267 267 268 266 266 266 269 269 272 276 275 276 276 277 279 281 282 282 282 282 282 282 282 282
277 276 268 257 256 257 273 276 277 276 268 276 278 278 277 275 269 270 277 277 275 275 274 273 274 273 271 272 274 275 273 274 275 276 279 281 282 282 281 281 282 282 282 282
266 268 268 268 260 264 274 277 277 265 272 278 279 278 276 274 273 275 277 275 275 274 274 273 273 272 270 271 273 273 273 272 274 277 280 280 281 282 282 282 282 281 281 281
266 264 262 263 260 262 277 276 273 277 277 277 277 277 277 276 275 275 274 274 274 273 273 273 272 271 270 271 271 271 270 271 273 276 278 279 280 281 281 281 281 281 280 279
266 270 267 270 269 277 278 278 280 279 279 277 277 277 277 276 274 274 273 273 273 273 273 272 271 271 269 269 269 269 268 270 272 274 275 277 278 279 279 279 279 279 279 278
270 273 271 270 276 277 279 280 280 280 280 279 279 278 276 275 273 273 270 271 271 269 268 266 266 267 267 266 268 266 266 268 270 272 276 276 276 276 276 277 277 277 276 275
273 273 271 270 275 278 278 279 280 280 280 276 274 276 276 275 274 274 273 271 271 269 265 264 265 265 263 263 262 261 265 266 269 271 275 277 275 275 276 276 276 276 277 275
272 275 274 276 283 281 282 283 275 277 274 276 275 271 270 275 275 274 273 273 271 269 267 265 265 264 263 262 262 262 263 265 267 269 270 275 277 276 274 273 275 279 279 279
Wind_Speed
4 6 2 3 2 2 3 3 6 7 9 7 14 20 23 13 5 6 4 1 4 6 6 6 8 8 8 8 9 10 13 14 12 8 9 9 8 11 9 9 11 12 9 9
6 1 2 2 2 2 3 2 7 6 3 8 11 17 17 8 6 6 5 3 6 7 7 9 10 9 8 8 11 12 14 13 11 9 10 10 10 10 12 10 10 12 11 10
5 3 2 1 2 2 3 4 3 8 5 6 6 10 5 3 5 5 2 3 5 8 9 12 13 10 8 10 11 14 13 15 15 15 12 11 10 10 10 11 9 10 11 9
4 3 3 2 2 4 2 1 3 8 6 3 6 7 7 3 5 3 5 7 8 7 9 9 13 14 13 13 10 13 13 15 15 16 14 15 13 12 10 10 7 7 8 8
6 1 1 1 3 4 8 8 10 6 3 4 6 4 10 1 4 1 6 9 9 7 9 12 13 15 15 13 12 12 12 14 14 15 15 13 14 13 10 10 11 10 6 7
5 1 2 2 4 2 5 5 7 4 4 3 5 6 10 4 3 3 6 9 10 9 11 11 12 14 14 13 12 11 13 13 14 15 15 16 20 14 9 9 9 6 4 5
5 2 0 1 3 5 8 7 6 8 6 7 4 2 13 3 4 3 7 9 8 11 11 12 13 13 13 15 14 13 13 15 16 15 13 16 17 10 11 9 9 6 4 3
4 9 2 2 3 5 3 6 7 5 4 7 2 7 9 6 5 3 6 8 8 12 11 13 14 14 14 15 13 15 14 15 14 13 12 14 11 6 3 4 3 3 1 2
4 7 0 2 2 5 4 2 3 3 1 3 5 9 8 3 5 6 8 9 11 12 11 11 13 13 14 14 14 14 16 15 15 14 12 12 9 7 6 4 4 4 4 3
3 4 3 3 3 4 6 2 4 4 3 7 8 7 10 6 8 7 9 9 11 9 9 9 11 13 12 13 13 14 13 15 15 15 12 9 9 7 7 6 7 7 6 5
4 5 7 3 4 9 2 2 2 4 5 5 5 10 9 9 8 7 8 10 10 10 7 7 10 10 12 13 13 13 13 14 12 11 12 11 8 7 6 5 4 3 4 3
4 4 4 11 4 5 6 8 5 6 7 5 3 14 4 7 8 7 10 10 8 7 7 7 9 11 11 12 12 13 13 13 12 12 11 10 9 8 6 5 5 4 3 3
5 2 4 9 6 5 2 5 4 3 2 8 4 12 4 4 5 7 9 11 7 7 7 9 10 10 11 11 11 12 12 13 12 12 10 9 8 7 6 5 5 3 1 3
3 3 8 9 9 4 4 5 8 7 4 5 13 19 27 14 8 7 9 8 6 5 7 8 9 10 10 11 11 11 11 11 11 10 9 8 7 7 5 4 3 2 3 4
4 5 4 7 10 7 15 16 10 12 15 8 20 8 20 18 10 12 7 5 7 7 6 7 10 11 10 12 13 12 11 12 12 10 8 7 7 6 5 4 4 5 5 6
4 5 2 7 8 9 9 18 16 19 15 16 22 26 25 23 2 4 7 6 6 5 7 7 8 10 11 12 12 12 12 12 11 10 9 7 7 6 6 6 7 8 7 8
6 4 3 7 3 7 9 11 7 6 5 8 8 18 2 5 5 6 6 7 6 5 6 8 5 8 8 10 11 11 11 11 11 11 10 9 7 8 8 8 9 9 10 10
6 5 3 6 6 2 8 4 7 11 8 16 8 10 9 7 6 7 6 6 6 4 5 7 4 5 7 5 10 11 9 10 10 12 12 10 8 9 9 11 11 11 11 11
4 5 2 1 3 10 11 3 7 8 9 13 15 16 5 3 3 7 4 6 5 5 4 4 3 1 6 5 7 8 9 10 12 12 12 11 10 10 10 11 11 11 12 12
2 3 4 3 2 7 6 1 1 2 7 7 10 9 6 4 2 6 5 5 5 4 2 2 5 2 4 8 8 7 9 10 11 12 11 11 11 12 12 11 11 10 11 12
3 2 12 8 5 13 15 7 1 7 9 5 6 6 8 6 6 4 6 5 5 4 3 2 3 4 5 6 7 7 8 9 9 10 9 10 10 10 9 10 9 9 10 12
10 9 6 4 3 13 10 5 10 7 3 3 4 6 8 6 5 6 7 7 7 6 4 2 2 3 4 5 5 4 5 8 7 7 7 8 9 8 7 9 8 9 9 9
3 11 10 14 15 6 9 7 10 8 6 4 4 5 7 8 8 8 8 8 7 7 5 2 2 2 3 4 4 3 5 6 6 6 6 5 7 8 8 9 8 7 7 7
6 6 5 2 13 23 17 15 8 7 10 7 6 7 8 8 8 8 5 6 6 5 4 4 3 0 1 2 3 1 4 5 4 5 5 5 8 9 9 7 7 6 6 7
8 9 7 9 21 14 19 13 14 13 12 7 6 9 11 8 6 8 7 7 6 6 4 4 5 4 4 1 1 2 3 4 2 3 3 6 6 7 7 8 6 7 8 7
9 11 8 13 24 10 12 8 3 9 10 13 9 6 5 10 11 8 8 7 7 7 5 4 5 4 4 4 3 1 2 2 2 3 2 2 5 5 4 5 6 17 16 17
Wind_Direction
351 61 146 157 112 158 250 250 258 259 269 328 276 283 284 293 166 165 140 39 335 314 297 332 331 319 314 319 315 316 313 304 298 303 303 295 286 299 276 267 253 245 232 222
19 147 128 77 267 283 241 253 282 290 344 323 296 285 284 247 203 173 147 350 321 316 322 320 324 324 321 313 312 307 306 302 304 304 290 277 278 275 283 273 273 241 221 221
155 178 136 121 324 6 285 190 278 268 333 269 291 294 324 28 106 137 149 30 325 326 317 331 323 318 309 308 307 304 309 306 297 299 290 278 268 267 268 268 260 248 216 211
220 214 143 62 258 115 301 242 308 312 38 272 66 278 297 199 182 155 32 345 323 299 334 316 317 315 311 307 303 296 301 300 300 300 292 280 271 270 266 268 263 242 202 205
260 132 159 128 219 134 240 325 292 289 148 19 325 63 269 184 225 202 350 330 318 322 314 319 316 310 308 311 305 302 302 302 296 299 291 283 274 260 254 257 267 251 217 204
239 159 187 245 289 209 301 332 22 68 100 9 245 114 280 233 201 344 311 313 305 306 320 308 308 311 312 312 305 298 298 298 300 298 296 291 286 241 233 246 252 239 204 183
328 299 90 260 8 11 38 42 353 356 7 226 244 348 243 214 132 189 280 290 298 313 310 313 322 321 318 315 310 309 312 303 301 301 302 299 299 245 237 245 259 214 202 183
109 332 132 289 137 186 46 124 143 249 283 270 16 229 254 182 156 220 275 277 304 317 319 323 322 327 322 314 311 314 307 303 303 305 303 299 316 336 5 23 341 24 281 184
101 282 134 45 59 111 267 68 166 107 139 9 261 289 297 180 314 322 296 342 313 314 315 316 323 328 321 318 318 316 311 308 308 308 302 301 321 343 347 4 20 2 26 357
199 341 236 268 81 4 141 170 33 8 346 301 287 279 244 268 265 304 335 299 287 285 300 325 327 330 324 320 319 318 313 314 310 307 306 303 313 346 339 2 7 353 343 356
127 105 289 62 201 180 19 346 14 127 152 196 294 265 225 220 207 238 276 269 272 279 300 321 326 323 322 321 324 321 322 316 315 313 311 311 320 332 342 358 332 328 325 341
199 151 258 229 266 157 165 189 160 130 271 228 196 267 236 193 203 206 258 268 280 264 294 315 328 331 325 327 325 323 323 322 320 317 317 319 326 335 340 335 322 324 339 346
181 289 353 340 351 358 202 222 171 134 109 218 150 266 300 299 274 255 254 278 294 315 332 326 336 333 333 331 329 328 328 324 323 321 318 323 329 329 325 318 309 300 85 33
143 215 184 205 211 149 264 227 203 150 150 223 226 274 283 275 268 275 267 261 278 320 314 303 328 332 337 331 331 332 332 328 325 323 327 330 329 325 321 328 342 28 80 79
140 222 244 252 252 218 254 253 206 203 216 192 268 222 267 281 291 289 266 312 317 338 331 322 327 331 339 332 335 338 341 336 336 340 344 347 342 349 360 18 38 44 55 64
185 259 97 284 255 245 256 252 224 223 242 254 258 276 274 280 304 283 265 282 293 295 299 317 309 327 341 336 332 334 345 342 343 350 354 353 4 18 30 45 56 61 59 58
169 148 65 265 348 314 289 237 172 187 210 159 173 231 295 284 263 251 265 234 264 272 278 313 302 317 315 331 328 334 344 342 356 5 1 8 15 33 41 54 59 65 64 64
144 122 131 264 1 287 246 189 177 194 214 212 268 264 229 231 241 243 215 204 253 245 267 296 294 309 312 315 330 331 349 359 7 13 13 14 24 42 51 62 61 62 64 63
155 127 306 206 216 299 287 178 160 174 279 204 219 251 259 251 272 296 207 199 199 188 229 245 262 271 309 328 328 339 355 5 13 8 15 21 27 44 53 58 62 63 69 67
153 89 142 79 172 241 253 232 171 121 290 202 184 231 199 154 36 260 175 182 193 175 153 9 334 37 354 345 343 7 7 12 8 356 5 17 30 42 46 49 53 62 69 70
148 204 218 214 247 279 252 233 194 86 243 168 182 188 157 192 202 184 152 169 172 174 146 92 17 29 11 346 342 24 11 14 341 347 9 23 26 37 44 53 51 53 62 64
170 160 195 135 206 274 173 76 174 221 256 222 201 190 196 201 163 175 192 179 178 182 173 121 73 50 31 6 353 12 28 333 336 346 16 28 31 36 40 53 49 49 54 64
259 194 181 187 214 240 210 221 231 164 199 220 207 212 204 196 198 190 197 195 190 185 171 148 117 87 56 26 21 27 333 336 340 360 14 28 51 45 39 46 53 52 51 66
255 175 228 79 250 242 244 252 255 226 228 213 212 202 182 204 191 204 188 200 184 174 186 166 134 122 114 64 59 352 315 327 352 15 17 38 55 53 50 50 52 56 52 49
192 144 192 261 276 276 259 237 244 249 236 225 221 196 205 191 209 195 195 198 194 181 176 167 171 183 228 203 134 317 328 332 33 49 45 74 45 46 65 70 66 61 74 84
178 196 203 246 259 235 259 248 216 215 226 229 197 223 226 188 204 189 207 189 176 182 167 170 189 184 200 180 187 236 309 312 144 92 42 66 120 121 99 72 61 63 68 67